Simultaneous Nadir Overpasses (SNOs) Predictions

Prediction of SNOs between GOES-16 and NPP Satellite Orbit:

Table of predicted SNOs for the next 14.0 days since TLE Epoch: 10/22/2022
Index Date Time (GOES-16) GOES-16 Lat,Lon NPP Lat,Lon Distance(km) Time Diff (sec)
1 10/22/2022 18:24:05 -0.04, -75.20 0.18, -74.29 104.58 80
2 10/24/2022 06:43:12 0.03, -75.21 1.00, -79.55 495.33 80
3 10/25/2022 06:24:27 0.04, -75.21 0.02, -75.01 22.41 80
4 10/27/2022 18:27:39 -0.04, -75.24 -0.13, -75.79 62.24 80
5 10/28/2022 18:11:33 -0.04, -75.25 0.85, -71.25 455.41 80
6 10/30/2022 06:33:00 0.03, -75.25 0.32, -76.52 144.32 59
7 10/31/2022 06:11:56 0.03, -75.26 -0.72, -71.99 373.28 80
8 11/01/2022 18:33:52 -0.02, -75.28 -0.48, -77.28 228.37 80
9 11/02/2022 18:17:47 -0.02, -75.30 0.56, -72.76 289.90 80
10 11/04/2022 06:39:34 0.01, -75.32 0.61, -78.02 308.08 80
